Location: Bocchiglicro
(39.4167°N, 16.7500°E)
Time: 10:34:37
(UTC+00:00)

Cosmos-2242 - Pass Details

Date: 07 June 2020
Orbit: 590 x 618 km, 82.5° (Epoch: 07 July)

Event Time Altitude Azimuth Distance (km) Brightness Sun altitude
Rises 00:29:08 0° 341° (NNW) 2,832 7.1 -23.8°
Reaches altitude 10° 00:31:31 10° 331° (NNW) 1,926 6.0 -23.6°
Enters shadow 00:34:23 28° 293° (WNW) 1,121 4.3 -23.4°
